Location: Newark
(16.3678°N, 77.8722°E)
Time: 08:54:33
(UTC+00:00)

Tiros 1 - Pass Details

Date: 09 December 2019
Orbit: 630 x 664 km, 48.4° (Epoch: 20 January)

Event Time Altitude Azimuth Distance (km) Brightness Sun altitude
Rises 22:59:53 0° 221° (SW) 2,974 - -29.1°
Reaches altitude 10° 23:02:14 10° 222° (SW) 2,059 - -28.6°
Maximum altitude 23:07:00 88° 310° (NW) 655 - -27.5°
Exits shadow 23:08:40 41° 39° (NE) 947 8.0 -27.1°
Drops below altitude 10° 23:11:43 10° 41° (NE) 2,041 10.0 -26.4°
Sets 23:14:02 0° 41° (NE) 2,945 10.8 -25.9°
